sat.trackr.live / text

‹ back to catalog

STARLINK-2377

NORAD 47797 · 2021-018L

PAYLOAD ACTIVE UNKNOWN

§ Identity

Operator
Country
US
Launch date
2021-03-11
Launch site
AFETR
Launch vehicle
Mass (kg)
RCS (m²)

Purposes: comms

External: N2YO · Heavens-Above · Gunter

§ Orbital elements

Epoch: 2026-05-24T17:59:47.241312Z

Period
94.01 min
Inclination
53.1596°
Eccentricity
0.0001045
Mean motion
15.31717006 rev/d
Perigee alt
470.0 km
Apogee alt
471.4 km
Semi-major
6,848.8 km
B*
8.8730e-5
RAAN
261.6273°
Arg perigee
86.9171°
Mean anomaly
273.1950°
Rev number
28,819

§ Raw data

STARLINK-23771 47797U 21018L   26144.74985233  .00002391  00000+0  88730-4 0  99982 47797  53.1596 261.6273 0001045  86.9171 273.1950 15.31717006288190

JSON: /api/v1/satellites/47797 · /tle

For live sub-satellite position, see the globe view (requires WebGL).

§ Visibility from observer

Set your observer location to see the next 7 days of passes ≥ 10°. The values pass through the URL so the page stays shareable.

No JS? Fill the form by hand. The geolocation button needs JavaScript.